Weather in Belyaevka

Ukraine / Odesa District     46˚28′21″N   30˚13′31″E
temp.,
°C
wind,
m/s
gust,
m/s
humid.,
%
clouds,
%
prec.,
mm/h
press.,
hPa
HPBL,
m
28 november, sat
sat2823:00+3˚nw22660 0.0 102123
02:00+2˚nnw126546 0.0 102023
05:00+2˚nw2273100 0.0 101924
08:00+2˚nnw1272100 0.0 101923
11:00+6˚nnw235783 0.0 1019291
14:00+8˚nnw225559 0.0 1018521
17:00+5˚nnw227988 0.0 101829
20:00+3˚n338794 0.0 101964
29 november, sun
sun2923:00+2˚n2390100 0.0 101943
02:00+2˚nne2290100 0.0 101925
05:00+2˚nne228997 0.0 101924
08:00+3˚n248599 0.1 1020119
11:00+5˚ne347695 0.0 1020321
14:00+7˚nne336898 0.0 1020459
17:00+5˚ne4681100 0.0 1020237
20:00+4˚nne3685100 0.0 1020196
30 november, mon
mon3023:00+3˚nne3586100 0.0 1020165
02:00+3˚n4688100 0.0 1021190
05:00+3˚n4789100 0.0 1020266
08:00+3˚n5888100 0.0 1022367
11:00+4˚n6885100 0.1 1022481
14:00+3˚nnw6995100 1.3 1022330
17:00+3˚nnw71092100 1.6 1022363
20:00+3˚nnw71094100 3.8 1023336
1 december, tue
tue123:00+2˚n61095100 0.6 1023349
02:00+1˚n81395100 1.0 1024477
05:00+2˚n71188100 0.0 1023508
08:00+2˚n6991100 0.1 1024377
11:00+3˚n6883100 0.0 1024438
14:00+4˚n5780100 0.0 1023466
17:00+4˚nne5885100 0.0 1023386
20:00+4˚nne4786100 0.1 1024341
2 december, wed
wed223:00+4˚nne4786100 0.0 1024263
02:00+2˚ne358995 0.0 1024120
05:00+1˚nne358960 0.0 1024113
08:00+2˚nne358578 0.0 1024168
11:00+4˚ne4576100 0.0 1024321
14:00+6˚ne337183 0.0 1023568
17:00+3˚nne238823 0.0 102451
20:00+2˚nne239220 0.0 102431